FLOCK 2K-04

Last updated on Wed Feb 14 2018 16:20:52 GMT+0000 (Coordinated Universal Time)

1 42851U 17042AC 18045.53370869 .00007532 00000-0 21932-3 0 9990 2 42851 96.9928 308.2833 0010128 190.9577 169.1449 15.35621962 32809

Satellite not in orbit

FLOCK 2K-04